Wind_Speed
20 24 28 32 33 35 39 42 44 43 41 40 41 42 42 40 39 40 40 40 39 38 37 37 36 36 36 36 36 36 36 36 36 36 36 37 37 37 37 38 39 40 42 43 44 45 46 47 48 49 51 52 54 55 56 57 57 55 52 48 46 44 42 40 39 39 39 40 41 43 43 44 45 46 47 49 50 52 54 56 58 59 61 62 64 65 66 68
23 25 28 30 31 33 37 41 43 43 42 41 41 41 40 39 39 40 38 37 36 36 35 34 34 34 33 34 34 34 34 34 34 35 35 35 36 36 37 38 39 40 42 43 44 45 46 47 49 51 52 53 54 55 55 54 52 48 44 41 39 38 38 38 38 39 40 41 43 44 44 44 45 47 48 49 51 53 55 57 58 59 61 62 64 65 67 68
26 26 29 30 32 35 38 42 45 44 42 42 40 39 40 39 39 38 36 35 34 33 33 32 32 32 32 32 32 32 32 33 33 34 34 35 35 36 37 38 39 40 41 42 44 46 47 49 50 52 52 53 53 52 50 47 44 41 38 35 35 36 37 39 39 39 40 41 44 46 46 46 47 48 49 51 52 54 56 57 58 59 61 63 64 66 67 68
27 28 30 32 34 36 39 43 44 42 41 41 40 39 40 39 37 36 35 34 33 32 31 31 30 31 32 32 31 31 31 32 32 33 34 34 35 36 36 37 39 40 42 43 45 46 48 50 51 51 51 51 49 46 43 40 37 35 34 33 34 35 37 39 41 41 41 42 44 47 48 49 49 50 51 52 53 55 56 57 59 60 62 64 65 65 66 68
27 28 31 32 34 37 41 43 43 42 42 41 39 40 40 38 36 35 34 33 32 31 30 29 29 30 31 30 30 30 31 32 33 33 34 35 35 36 37 38 40 41 43 44 46 47 48 49 50 50 49 47 44 40 35 33 32 33 33 33 35 36 37 40 42 43 43 44 46 48 49 50 51 51 52 53 55 56 57 58 60 61 63 64 64 64 65 67
26 28 31 32 34 37 40 41 41 42 43 39 38 40 40 36 34 33 33 32 31 30 29 29 29 29 29 29 30 30 31 32 33 34 34 35 35 36 38 39 41 43 44 45 46 47 47 48 48 47 44 41 37 33 30 29 30 32 34 35 36 37 38 40 43 45 45 46 47 48 50 51 51 52 54 55 56 56 57 58 60 61 62 62 63 64 65 67
26 29 31 33 34 36 38 37 38 40 40 38 39 39 37 33 32 31 31 31 30 29 28 28 28 29 29 29 30 30 31 32 33 34 34 35 35 37 38 40 42 44 45 46 46 46 46 46 44 41 38 34 31 28 28 28 30 33 35 37 37 39 40 42 44 46 47 47 48 48 49 50 51 53 55 56 56 56 57 58 59 60 61 61 61 63 65 67
26 29 31 33 33 32 34 36 37 38 38 38 38 36 34 32 31 30 30 30 29 29 28 28 28 29 29 29 30 31 31 32 33 33 34 35 36 37 38 40 42 44 45 45 45 45 44 42 39 36 32 29 27 26 27 29 32 35 37 39 39 41 42 43 45 46 47 47 48 48 49 50 51 53 54 55 55 55 56 57 59 59 59 60 61 62 64 67
27 29 30 32 33 31 31 34 36 37 37 37 36 34 33 32 32 31 31 30 30 29 28 28 29 29 29 29 30 31 31 32 32 33 34 35 36 37 39 41 42 44 44 45 44 42 39 37 34 30 27 26 26 26 29 31 34 36 38 39 41 42 43 44 44 45 47 47 47 48 49 50 51 52 53 54 55 55 56 57 59 59 58 59 61 62 64 66
27 30 31 32 34 33 32 33 33 34 36 36 35 34 33 33 33 33 32 31 31 30 29 30 30 29 29 30 30 30 30 31 31 33 34 35 36 37 39 41 43 44 44 43 41 38 35 32 29 26 25 25 26 28 31 33 34 37 38 40 41 43 44 44 44 45 46 47 47 48 49 50 51 52 52 54 55 56 57 58 59 58 58 61 62 63 64 66
27 31 34 34 35 35 34 34 34 34 34 35 34 33 33 34 34 34 33 32 31 30 31 31 30 29 29 30 30 30 30 30 31 33 33 34 36 38 40 42 43 44 42 40 37 34 31 28 25 23 24 25 27 30 32 33 35 37 38 40 43 44 44 44 45 45 46 47 47 48 49 50 51 51 52 54 55 57 58 59 59 59 60 62 64 64 64 66
26 32 35 35 36 36 35 34 35 35 34 35 35 34 34 35 34 34 33 32 32 32 32 31 30 30 30 30 29 29 30 31 32 33 34 35 37 39 41 42 42 41 39 36 33 31 28 25 23 23 25 27 30 31 33 35 36 36 38 41 43 43 44 45 46 46 46 47 47 48 49 50 51 51 52 54 55 57 59 60 61 60 61 63 65 65 65 67
23 29 34 37 38 38 38 36 35 35 35 35 37 36 36 36 35 35 34 33 33 33 32 32 31 31 30 29 29 30 32 33 34 35 35 37 38 40 41 41 40 39 36 33 30 27 25 23 23 25 27 29 31 32 35 36 35 37 40 42 42 43 45 46 46 46 46 47 47 47 49 50 51 52 52 54 56 58 60 62 62 62 62 64 65 66 67 68
21 25 31 37 40 41 41 39 38 38 36 35 37 37 37 37 36 35 34 33 33 33 33 32 32 32 31 31 31 33 34 35 35 35 36 37 38 40 40 39 37 35 33 30 27 25 23 23 24 27 29 30 32 34 36 35 36 39 41 42 43 44 45 46 46 46 47 47 47 48 50 51 52 53 54 55 57 58 61 62 64 64 64 64 66 67 68 69
22 23 27 32 37 41 43 43 42 40 38 37 36 36 36 37 36 35 34 34 34 34 33 33 32 32 32 32 33 33 34 34 34 35 36 37 38 39 39 37 34 32 30 27 24 23 23 24 26 28 30 32 34 36 36 36 39 41 41 42 44 44 44 45 47 47 48 49 48 48 51 53 54 56 57 57 58 59 61 63 65 66 66 65 66 68 69 70
24 23 25 27 32 38 42 44 44 43 41 38 36 37 36 35 34 34 34 33 33 33 33 32 32 32 32 32 33 33 33 33 34 35 36 37 39 38 36 33 31 29 27 24 22 22 23 25 28 29 31 33 36 37 37 38 41 41 41 42 43 44 44 46 47 48 49 51 51 50 52 55 56 57 59 60 60 61 62 63 65 67 67 67 67 69 70 72
25 24 25 26 30 35 37 38 40 43 43 41 39 39 36 33 33 33 33 33 32 32 32 32 32 32 32 31 31 32 32 33 34 35 36 38 38 35 33 31 29 27 25 23 22 23 24 26 28 30 32 35 36 36 38 40 41 41 42 43 43 43 44 46 48 50 50 53 55 54 54 57 58 59 61 62 63 63 64 64 65 68 69 68 68 69 71 73
27 26 26 26 29 34 34 32 33 36 40 42 42 40 36 33 32 31 31 30 29 29 29 29 29 29 29 29 30 31 32 34 35 36 37 38 35 32 31 29 27 25 24 23 23 24 26 27 29 32 35 36 37 37 39 40 40 41 43 44 44 44 45 46 47 50 52 54 57 57 56 58 60 60 62 64 64 66 66 65 66 68 70 70 70 70 72 73
29 27 26 26 28 33 33 29 29 31 33 36 37 37 33 30 29 28 28 27 26 26 25 25 25 25 27 28 30 31 33 35 36 37 37 35 32 30 29 27 25 23 23 23 24 25 27 29 31 34 36 37 38 39 39 39 40 42 43 43 44 45 45 46 46 50 53 54 58 59 58 59 61 62 63 65 66 68 68 67 67 68 71 72 72 72 73 74
30 28 26 26 27 32 34 31 29 29 28 28 28 28 27 26 26 26 27 26 26 25 24 24 24 26 28 30 32 33 35 36 37 36 34 31 29 28 27 25 23 22 22 24 25 26 28 30 32 35 36 38 38 38 39 40 41 43 43 43 45 46 46 47 47 49 53 55 58 61 60 60 62 64 65 67 68 69 69 69 68 69 71 73 74 73 74 76
30 28 27 26 28 32 34 33 30 26 23 21 21 22 23 24 24 24 24 25 25 26 26 27 28 29 31 33 34 35 36 36 35 33 30 29 27 26 24 23 22 22 23 24 26 28 30 31 33 35 37 37 37 38 39 41 42 43 43 44 46 47 49 49 49 49 52 56 59 61 61 60 63 65 67 69 70 70 71 71 70 70 71 74 75 75 75 76
29 27 27 28 29 29 29 30 28 25 23 23 24 24 24 25 25 25 24 25 26 27 28 30 31 32 33 34 35 35 35 34 32 29 28 27 25 24 23 22 22 23 24 25 27 29 31 32 34 36 37 37 37 38 40 42 42 42 43 45 46 48 50 52 53 51 52 55 58 61 63 62 63 67 68 70 71 71 72 72 72 72 72 74 76 76 76 77
28 27 28 30 29 27 26 26 28 27 27 29 29 28 27 26 26 26 27 27 28 29 30 31 31 32 33 34 34 34 32 30 29 28 27 25 23 22 21 21 22 23 25 27 28 30 31 33 35 36 37 37 38 40 42 42 42 42 44 46 47 48 50 53 55 55 54 55 56 59 64 65 65 68 70 71 72 73 73 73 73 73 73 74 76 77 77 77
27 28 31 32 29 28 27 27 30 33 33 33 33 32 31 29 28 29 30 29 30 30 30 31 31 31 33 33 33 31 29 28 27 26 25 23 22 22 21 21 22 24 26 28 29 31 33 34 36 37 37 38 40 42 43 42 42 44 46 48 49 50 51 52 55 58 57 57 57 57 63 67 67 68 71 72 73 74 74 75 74 74 75 75 76 77 78 78
28 31 33 32 29 29 31 31 32 34 35 33 32 31 30 29 29 30 29 30 31 30 30 30 31 32 33 32 29 27 27 27 26 24 23 22 22 22 22 22 23 25 26 28 30 32 33 35 37 37 38 39 42 43 44 44 44 46 48 49 50 52 53 54 55 57 58 59 59 58 61 66 68 69 71 72 74 75 75 75 76 76 76 76 76 77 78 79
31 33 33 31 30 33 35 35 33 32 31 31 29 28 27 27 28 28 28 30 32 31 31 31 32 32 30 28 27 26 26 25 24 23 22 22 22 22 23 23 24 26 27 29 31 32 34 36 37 37 39 41 43 43 44 45 47 48 49 51 52 53 54 56 57 58 59 60 61 61 62 66 68 69 71 72 74 75 75 76 76 77 78 78 77 77 78 79
35 36 35 34 34 37 38 36 34 32 30 29 27 25 26 27 28 28 28 30 32 33 32 32 31 30 27 26 26 25 24 23 22 22 22 22 23 23 24 25 26 27 28 30 31 33 34 35 37 38 40 42 42 43 44 46 49 50 52 52 54 55 57 58 60 60 62 63 65 64 64 67 69 69 71 73 74 76 75 75 77 78 79 79 79 78 78 79
36 37 38 37 38 39 38 36 35 33 30 28 26 26 28 30 30 29 29 28 29 30 30 30 28 27 26 26 26 24 23 22 21 22 23 23 24 24 25 26 27 28 29 31 32 33 34 35 37 39 40 41 41 43 45 47 50 52 54 54 55 57 59 61 63 64 65 66 67 67 66 68 70 71 72 73 74 75 75 75 76 79 80 80 80 79 78 78
37 38 38 38 39 39 39 37 34 31 29 28 27 29 31 31 31 29 27 25 25 25 26 26 26 26 26 25 24 23 22 21 22 23 23 24 25 26 26 27 28 29 30 32 33 34 35 36 38 40 40 40 41 44 46 48 51 53 55 57 57 58 60 62 65 67 67 68 68 69 68 69 70 72 72 72 74 75 75 75 76 79 80 81 80 80 79 78
39 39 37 37 36 36 35 33 30 29 29 29 30 32 32 31 30 27 23 22 23 24 25 25 26 27 26 25 23 22 22 22 23 23 24 25 26 27 28 29 30 31 32 33 35 36 37 39 40 41 41 42 43 45 47 49 52 54 56 58 59 60 61 63 66 69 69 69 69 69 70 71 71 71 72 73 74 75 75 75 76 78 80 80 80 80 79 78
35 32 29 28 28 28 27 27 27 28 29 31 32 32 31 30 28 24 22 22 24 25 25 25 26 27 25 24 23 22 22 23 24 24 25 26 27 28 30 30 31 33 34 35 37 38 40 41 42 43 44 45 46 48 50 52 54 56 57 58 59 60 61 63 66 69 70 70 69 69 71 73 74 73 74 74 75 76 75 75 77 78 79 79 80 80 79 78
29 27 26 26 26 26 25 25 27 28 30 31 31 30 30 29 25 23 23 24 24 25 26 26 27 26 25 24 23 23 23 24 25 26 27 28 29 30 31 32 33 34 36 38 39 41 42 43 44 46 47 48 50 51 53 55 57 58 59 60 60 60 61 62 64 67 70 72 71 71 71 74 76 75 75 76 76 76 76 76 77 77 77 78 79 80 79 78
28 29 29 29 28 28 28 28 28 28 29 30 30 30 29 26 23 23 25 25 26 27 27 27 27 26 25 25 24 24 24 25 26 27 28 29 30 31 32 33 34 36 37 39 41 43 45 46 47 48 50 52 53 55 56 58 59 60 60 61 61 61 62 63 64 66 68 71 73 73 73 75 76 76 76 77 77 77 76 76 76 76 76 77 78 78 78 77
31 31 31 31 31 31 30 30 30 29 29 28 29 29 27 24 24 24 25 26 27 27 28 28 27 26 26 25 25 25 25 26 27 28 29 31 32 33 34 35 36 38 39 41 43 45 46 48 49 50 52 54 56 58 59 60 61 61 61 62 63 65 66 67 68 67 68 71 74 75 76 77 77 76 77 77 76 76 76 76 76 75 75 75 76 77 78 77
35 34 34 34 34 34 34 33 32 30 28 28 28 27 25 24 24 25 26 27 27 28 29 28 27 26 26 26 26 26 27 27 28 29 30 32 33 34 35 36 38 39 41 42 44 46 48 49 51 52 54 56 59 61 62 62 62 63 63 64 66 68 69 69 70 70 70 73 76 76 76 76 77 77 77 76 76 75 75 76 75 74 74 75 75 76 76 76
39 38 38 37 37 37 37 37 34 31 29 28 28 26 24 24 25 26 27 28 28 29 29 28 27 27 27 27 28 28 29 29 29 30 32 33 34 35 36 38 40 41 43 44 46 48 50 52 53 55 57 59 61 63 64 64 64 65 66 67 68 69 70 71 72 73 73 74 77 79 76 74 75 76 75 75 75 74 75 75 75 74 74 75 75 75 75 75
39 40 40 39 38 37 37 36 33 30 29 28 27 24 24 25 26 28 29 29 29 30 29 29 28 27 28 29 29 30 30 30 31 32 33 34 36 37 38 40 42 43 45 46 48 50 52 54 55 56 58 60 62 63 65 66 66 67 69 70 70 71 72 74 74 75 75 74 76 80 80 76 73 74 74 74 74 73 74 75 75 76 75 75 75 75 74 74
37 39 39 38 38 37 36 34 30 28 29 28 26 24 25 26 27 28 29 30 30 31 30 29 29 29 29 30 31 31 32 32 33 33 34 36 38 39 41 42 44 46 47 49 50 52 53 55 56 57 58 60 62 63 65 67 68 70 71 73 74 74 75 77 77 77 77 76 74 77 82 80 75 75 75 74 74 73 74 76 77 78 77 75 75 74 73 73
35 37 37 37 37 37 35 32 29 28 29 28 25 25 25 26 28 30 31 31 32 32 31 30 29 30 30 31 32 33 33 34 35 36 37 38 40 42 43 44 46 47 49 50 52 53 54 55 57 58 58 60 63 65 67 69 70 72 74 76 77 77 77 78 80 80 80 80 76 75 80 81 78 76 76 75 75 74 74 77 79 79 77 75 74 73 72 72
33 35 36 36 36 35 32 29 28 28 28 27 25 25 26 28 30 31 32 32 32 32 31 30 30 31 31 32 33 34 35 36 37 38 40 41 42 44 45 46 48 49 50 52 53 54 55 56 58 61 61 62 64 66 68 71 73 74 76 78 79 79 79 79 80 82 82 82 80 77 79 82 80 77 77 77 77 77 76 77 79 78 76 74 72 71 71 72
31 32 32 32 31 30 27 26 27 27 27 26 25 26 28 30 32 32 33 33 33 32 31 31 31 31 32 33 34 35 36 37 39 40 41 43 44 45 47 48 50 51 52 53 54 56 57 58 60 63 64 64 65 67 70 73 76 77 77 78 79 80 81 80 80 82 82 83 83 80 80 84 83 79 79 78 78 78 78 77 76 74 72 70 69 69 70 72
28 27 27 27 26 26 27 28 27 26 25 26 27 29 30 32 33 34 34 34 33 33 32 31 32 32 33 33 34 36 36 38 40 41 43 44 46 47 48 50 51 53 54 55 56 58 59 60 61 63 66 67 67 69 71 74 77 78 77 78 79 81 82 82 82 82 83 84 86 82 80 84 85 81 79 78 78 78 77 74 72 69 68 66 66 68 70 74
27 25 25 26 26 27 27 27 26 25 26 28 29 30 32 33 34 34 35 35 34 33 32 32 33 33 34 34 35 36 37 39 41 43 44 45 47 48 49 51 52 54 55 56 57 59 60 61 61 63 67 70 71 72 73 74 76 78 78 78 79 81 82 84 85 84 84 84 86 84 78 80 82 79 77 77 76 75 74 70 66 64 63 64 66 69 72 76
27 25 25 26 27 26 25 24 25 27 28 29 30 32 33 34 35 35 35 35 34 33 33 33 34 34 35 36 36 38 39 40 41 44 45 46 48 49 50 52 53 55 56 57 58 60 61 63 65 65 67 69 70 70 71 72 74 76 77 77 78 81 83 84 84 83 81 80 83 82 76 74 76 75 74 74 72 71 70 66 62 60 61 64 67 71 75 79
25 24 25 26 25 24 24 26 28 29 30 30 32 33 34 35 36 36 35 35 34 34 34 35 35 36 36 37 38 39 40 41 42 44 47 47 49 50 51 53 54 56 57 58 60 62 63 67 69 69 69 70 70 69 70 71 74 76 77 77 78 80 81 82 82 81 79 76 77 79 73 68 68 68 68 69 69 67 65 61 59 60 62 66 70 74 78 80
24 25 26 26 24 25 27 29 30 31 31 32 33 34 35 36 37 36 35 35 35 35 35 36 37 37 38 39 40 41 42 43 44 46 48 49 50 52 53 55 56 58 59 61 63 64 65 68 70 70 71 73 73 73 73 74 76 79 81 79 77 77 78 79 80 80 78 73 70 72 70 64 61 61 61 62 63 62 60 59 59 61 64 69 73 76 79 82
25 26 27 27 27 29 31 32 32 32 32 33 35 36 37 37 37 36 35 35 35 36 36 37 38 38 40 41 42 43 44 45 46 48 49 51 52 54 55 57 59 60 62 63 65 65 65 66 68 69 70 74 75 75 76 77 79 81 81 77 74 74 76 79 80 79 77 72 66 65 65 63 60 58 58 57 56 56 57 58 59 63 67 71 74 77 80 83
27 27 28 29 31 32 33 33 33 33 34 35 36 37 38 37 37 36 36 36 36 37 38 39 39 40 41 42 43 44 46 47 48 50 51 53 54 55 57 59 61 62 64 64 65 65 64 65 66 67 69 74 77 76 77 78 78 79 77 73 71 74 76 78 79 78 75 71 66 62 61 62 61 57 54 55 55 55 57 60 63 66 69 72 76 79 81 83
28 29 30 31 33 34 34 34 34 35 36 37 37 38 38 37 36 36 36 37 37 39 39 39 41 41 42 43 44 45 47 48 49 51 53 54 56 57 59 60 62 63 64 65 65 65 65 64 66 66 67 73 78 77 76 75 74 74 74 72 71 74 77 77 78 77 72 67 64 60 57 57 58 56 53 54 56 59 62 64 66 69 72 75 78 80 81 83
30 32 33 33 34 35 35 35 36 36 37 38 38 38 37 36 36 36 37 37 38 40 40 40 41 42 43 45 45 46 48 49 50 52 53 55 57 58 59 61 62 63 64 65 65 66 66 65 66 66 66 70 74 72 70 70 71 72 73 72 72 74 76 77 77 74 68 62 59 57 53 51 52 54 55 57 60 63 66 68 68 72 76 78 79 81 82 85
32 33 33 33 34 35 35 36 37 37 37 38 38 37 36 35 35 36 38 39 39 40 41 42 42 43 44 45 46 47 49 50 51 52 54 55 57 58 59 61 62 62 64 65 65 67 67 67 66 65 62 64 67 66 66 68 71 73 72 70 71 74 76 75 74 69 63 57 54 53 53 52 52 54 57 60 64 67 71 72 72 74 77 79 80 82 85 88
32 33 33 33 34 35 35 36 37 37 37 37 36 35 35 35 36 37 38 39 40 41 41 42 43 44 45 46 47 48 49 50 52 53 54 56 57 59 60 61 62 63 64 66 66 67 67 66 65 63 61 61 64 65 66 69 72 72 69 68 70 73 71 67 66 63 58 56 55 54 55 56 57 59 60 63 66 70 74 76 75 75 77 79 82 85 87 90
Wind_Direction
178 177 179 181 185 190 194 198 200 205 208 210 215 219 221 222 222 224 227 229 233 236 238 240 242 245 248 250 251 253 255 258 260 262 264 266 268 271 273 276 278 280 282 283 284 285 287 288 289 290 291 292 294 295 297 299 300 300 300 299 299 300 302 304 306 308 310 311 311 309 309 309 308 308 309 309 311 312 312 312 312 311 311 310 310 310 310 310
172 172 176 176 180 186 190 193 197 201 205 209 214 219 221 222 223 224 227 230 233 237 239 241 243 245 247 249 251 253 256 258 260 263 265 267 270 272 275 278 281 282 284 285 287 288 289 290 291 291 293 295 297 299 301 301 300 300 300 301 303 306 308 309 311 313 314 314 312 310 309 308 308 308 310 311 313 314 313 312 312 311 311 311 311 312 312 312
172 171 173 174 178 183 188 192 196 199 203 209 213 218 220 222 224 225 227 230 233 236 239 241 243 245 247 249 252 254 257 259 262 264 267 269 272 275 278 281 284 285 286 288 289 290 291 292 293 295 297 300 302 302 302 301 300 301 303 306 310 311 312 313 313 314 314 313 311 309 309 309 310 311 312 314 314 313 312 312 312 313 313 313 313 314 315 315
175 174 175 177 181 184 189 194 196 197 203 209 212 217 219 221 224 226 227 230 233 236 238 240 242 245 248 250 253 256 259 262 265 268 270 272 275 278 281 284 286 287 288 289 290 292 294 296 298 300 302 303 303 302 300 301 304 306 308 311 312 312 313 313 313 313 313 312 311 310 311 312 313 314 315 315 314 312 313 314 315 315 315 315 315 317 318 319
180 179 180 181 184 187 193 197 196 198 203 208 211 217 220 221 224 227 229 231 232 235 237 239 242 246 250 253 256 260 263 266 269 271 273 275 278 281 284 287 288 289 290 291 294 296 298 300 302 302 303 303 301 300 301 305 308 309 310 312 312 312 312 312 312 313 312 312 313 313 314 315 316 317 317 315 314 315 316 316 316 316 316 316 318 320 321 322
186 184 184 185 189 194 200 200 198 202 206 208 211 218 220 221 225 228 230 231 232 235 237 240 245 248 252 256 260 264 267 271 273 275 277 279 282 285 287 289 290 291 293 295 297 300 301 302 303 303 303 301 301 302 305 308 309 309 310 310 310 310 312 313 312 312 313 314 315 316 316 318 319 318 317 316 317 319 319 318 318 317 317 318 321 324 325 326
192 190 189 190 193 199 206 205 203 207 211 212 216 221 222 222 225 228 231 232 233 236 239 243 247 251 255 260 265 268 272 275 278 279 282 284 286 289 290 291 293 294 296 298 300 302 303 303 303 302 300 300 302 307 309 309 307 307 308 308 309 311 314 314 314 314 316 317 318 318 319 320 320 319 319 320 322 322 321 320 318 317 318 321 325 328 329 329
197 195 194 196 197 200 207 209 208 210 215 218 222 225 226 224 226 230 232 234 236 238 242 245 250 254 259 264 269 272 276 279 281 283 285 287 289 291 292 293 295 297 300 302 303 304 304 303 301 299 300 303 307 308 308 307 307 308 309 311 312 315 315 315 316 317 318 319 320 321 321 322 322 322 323 324 325 324 323 321 319 318 321 326 329 331 332 332
200 199 199 200 200 199 206 212 212 212 216 221 224 227 228 228 228 231 233 235 238 241 244 249 253 257 262 267 272 275 278 281 283 285 287 289 291 292 294 295 298 300 302 303 303 303 302 300 299 300 303 306 306 306 305 306 309 311 312 314 315 315 315 316 317 318 319 320 322 323 323 323 324 325 326 327 327 326 325 322 320 322 326 331 333 334 334 335
202 202 202 202 202 203 209 216 218 217 218 222 225 227 229 231 232 233 235 237 240 243 247 252 255 260 265 269 274 277 279 281 284 286 288 290 291 293 296 298 300 302 302 302 302 301 300 298 299 302 304 303 302 303 304 308 311 312 314 315 314 313 315 317 318 319 320 322 323 324 324 325 326 327 328 329 329 328 327 325 325 328 332 334 335 335 336 337
204 205 206 207 206 207 212 219 223 223 222 225 227 229 231 233 235 236 238 240 242 246 249 253 257 261 266 271 275 277 278 281 283 286 287 290 292 295 298 300 301 302 302 302 301 299 298 298 300 302 301 299 300 303 307 310 312 313 314 314 313 314 317 318 319 320 322 323 324 326 326 327 327 328 329 330 330 330 330 329 330 333 335 336 336 336 337 338
205 207 210 212 211 209 212 219 225 226 225 226 228 230 233 235 237 238 240 242 245 248 251 255 258 262 267 271 274 275 277 280 283 285 288 290 294 298 300 301 301 301 301 300 298 297 297 299 301 299 297 298 302 306 310 311 312 314 313 312 314 317 318 318 320 322 323 324 326 328 328 328 329 329 330 331 332 333 333 333 334 335 336 336 337 337 338 340
208 208 210 214 214 214 215 219 222 226 227 228 229 230 233 236 239 241 243 245 248 250 253 256 259 263 267 270 271 274 277 280 282 285 288 292 296 299 300 301 300 300 299 298 296 296 299 300 299 298 298 301 306 309 310 311 312 312 311 312 315 316 317 318 321 323 324 325 326 329 330 330 331 331 331 332 334 335 336 336 337 337 336 337 337 338 340 341
217 212 211 212 215 217 219 220 222 227 231 232 233 233 234 237 241 243 246 248 251 254 257 259 262 265 268 271 273 276 278 280 283 286 290 294 297 299 300 300 299 298 297 296 296 298 300 300 299 299 301 305 308 308 310 312 311 310 311 314 315 317 319 322 323 324 325 325 327 330 332 333 334 334 334 334 335 337 338 338 338 338 337 337 338 339 341 342
224 220 217 214 214 217 219 220 222 226 230 233 236 237 237 239 242 245 248 251 254 257 259 261 264 267 271 273 275 276 279 281 284 288 291 295 298 300 299 298 297 295 294 294 298 300 300 299 298 299 303 306 307 309 311 311 309 309 313 316 318 321 323 324 325 326 327 327 328 332 334 334 335 336 336 336 336 338 339 339 338 338 337 337 338 340 341 343
228 225 224 220 215 216 218 220 221 223 226 230 234 237 239 241 244 247 250 252 255 259 261 264 266 269 271 273 275 277 279 281 284 288 292 296 299 299 297 296 294 292 291 294 296 297 295 293 295 300 304 307 308 310 309 307 308 312 317 320 322 324 325 325 326 327 329 328 329 331 334 334 334 336 337 338 338 339 340 339 338 337 337 337 338 340 342 343
230 227 227 224 218 217 219 220 220 222 224 226 231 235 238 242 246 249 253 256 259 262 264 266 267 269 270 271 273 275 277 280 284 288 292 296 298 297 294 292 290 289 291 293 294 293 292 293 298 304 306 306 307 306 306 308 313 318 320 321 323 324 325 326 328 328 329 329 329 330 333 333 333 335 337 338 338 339 339 339 338 337 337 337 338 340 341 343
230 229 228 225 219 217 220 222 222 221 222 225 229 234 237 242 247 250 255 258 260 262 265 266 267 266 267 268 270 273 276 280 284 288 293 296 296 294 291 289 287 289 293 295 295 294 296 299 302 304 303 304 305 306 309 314 319 320 320 321 322 323 324 327 328 329 329 330 329 329 332 332 332 334 336 337 338 339 339 338 338 337 336 337 338 339 341 342
229 230 230 227 218 212 214 218 220 220 220 222 226 230 234 241 247 251 253 255 257 259 261 262 262 262 263 266 269 273 277 281 286 291 294 294 293 290 287 286 287 292 295 296 296 296 298 300 301 301 303 306 308 311 315 318 319 318 319 320 321 322 324 326 327 328 329 330 329 329 331 332 332 334 336 337 338 338 337 338 338 337 336 337 339 339 341 342
227 228 230 228 215 205 205 207 213 218 220 221 224 228 234 240 245 248 249 251 253 255 255 257 260 263 265 268 271 275 279 284 289 292 293 291 290 287 285 286 289 293 296 297 298 299 299 299 301 303 306 308 310 313 315 316 317 317 318 319 320 321 323 324 325 328 329 330 329 329 330 332 332 334 336 337 338 337 336 337 337 337 337 337 338 340 341 342
223 224 226 219 206 201 204 206 208 213 217 220 224 227 231 233 235 239 245 251 254 256 259 261 263 265 268 271 275 279 283 287 291 291 291 290 287 285 286 289 292 296 298 300 300 300 299 300 302 305 306 308 309 311 313 314 315 316 318 319 320 322 323 324 326 328 329 330 329 329 329 332 334 335 337 338 337 336 336 336 337 338 337 337 338 339 340 342
218 221 216 203 196 198 204 203 201 207 210 213 217 221 225 229 232 238 247 255 261 265 268 269 269 269 272 275 279 283 287 290 291 290 289 287 285 285 288 291 295 298 300 300 300 299 300 301 303 304 305 306 308 309 312 314 314 316 318 319 321 323 325 326 326 327 329 329 329 329 329 332 335 336 338 338 336 335 335 336 336 337 338 337 338 339 340 342
215 212 199 190 190 195 202 200 195 202 209 210 214 219 224 230 236 244 251 259 267 271 271 272 272 274 276 279 283 286 289 289 289 288 286 285 285 286 290 295 298 300 299 299 299 299 300 301 302 303 304 306 307 309 311 313 314 316 319 321 323 325 326 327 326 327 328 329 329 329 329 332 336 337 337 337 335 335 335 335 336 337 338 337 337 338 339 342
209 202 190 184 186 191 201 205 201 202 208 212 218 222 227 235 243 251 258 264 268 269 269 270 274 277 280 283 286 288 289 288 287 285 284 286 288 290 294 297 298 298 297 298 298 299 300 301 302 303 305 306 308 309 312 313 315 318 320 322 324 326 326 326 326 327 329 329 329 330 330 331 334 335 335 335 335 334 334 334 335 336 337 337 337 337 339 341
202 198 188 180 183 192 202 210 211 210 211 215 222 227 234 243 251 258 264 267 267 265 267 270 275 280 284 286 288 288 287 286 285 284 286 288 290 294 296 296 296 295 295 296 297 298 300 301 302 303 304 305 308 311 313 315 316 318 320 322 324 325 325 325 326 327 329 330 330 331 331 329 331 333 333 334 333 333 333 333 334 335 336 337 337 337 339 340
198 195 183 177 188 199 204 209 214 218 219 222 228 235 244 252 258 264 268 268 265 264 266 272 279 284 286 287 288 287 286 284 284 286 288 290 292 295 295 296 296 295 295 296 297 298 299 300 301 301 303 306 310 313 314 314 316 318 320 322 323 324 325 325 326 326 327 329 330 331 332 330 331 332 331 332 332 332 333 333 334 335 336 336 337 338 339 339
195 189 179 180 193 201 205 209 214 220 224 229 234 241 250 256 260 267 272 270 265 264 268 275 281 285 286 286 286 286 284 284 285 287 289 292 293 294 295 294 295 295 296 296 297 298 298 299 300 301 304 308 311 312 313 315 317 319 321 323 323 323 324 325 325 325 326 328 328 330 331 330 330 331 330 331 331 332 332 333 334 334 335 335 336 338 339 339
191 186 181 186 194 200 206 210 214 219 225 231 238 246 253 255 259 268 274 272 268 268 272 277 281 283 283 284 284 284 283 283 286 288 290 292 294 294 294 294 294 295 295 296 296 297 298 298 299 301 305 308 310 312 314 316 318 320 321 322 322 322 323 323 324 325 326 327 327 328 329 329 329 330 330 330 330 331 332 333 334 334 334 334 336 337 338 338
185 185 187 192 196 202 208 211 215 220 228 235 242 248 251 253 261 271 274 272 272 274 277 279 281 281 282 282 282 282 281 282 285 288 291 294 294 295 295 294 294 294 294 295 296 296 297 298 300 303 305 307 309 312 314 316 318 319 320 321 321 322 322 322 323 324 325 326 325 326 326 326 327 329 329 329 330 331 332 333 334 334 333 334 335 336 337 338
186 188 192 197 201 206 210 214 219 225 232 237 241 246 250 256 265 271 272 275 278 279 279 279 280 281 281 281 281 280 280 282 286 289 292 294 295 296 295 294 294 295 296 297 296 296 297 299 302 304 305 306 309 311 313 315 317 318 319 320 320 321 321 322 323 323 324 324 324 324 325 325 326 328 328 329 330 331 333 334 334 334 333 333 334 335 336 337
187 190 194 200 205 211 214 218 223 227 232 236 241 247 254 261 267 270 274 279 280 279 279 279 280 281 281 280 280 280 280 282 287 290 293 295 296 296 296 296 296 297 297 296 295 296 298 300 303 304 305 306 308 310 312 314 315 317 317 318 319 320 321 322 322 322 322 322 322 323 325 325 326 328 328 329 330 331 333 334 334 334 333 333 333 334 335 337
187 192 198 203 208 213 215 218 222 227 233 239 244 250 258 263 265 271 278 281 281 280 281 281 281 281 279 279 279 279 279 283 287 291 293 296 296 296 296 296 295 295 295 295 296 297 299 301 303 304 305 307 309 310 311 313 314 316 317 317 318 319 320 320 320 320 321 321 322 323 325 326 327 328 329 329 331 332 333 333 334 334 333 332 332 332 334 336
191 195 200 203 208 213 215 218 222 228 235 242 247 253 258 260 264 274 280 282 282 283 283 283 282 281 280 279 279 279 281 284 288 291 294 295 296 296 296 295 295 294 294 295 297 299 300 302 303 304 305 307 308 309 310 312 313 315 316 316 316 316 317 317 318 319 320 321 323 324 325 326 327 327 328 329 330 331 332 333 333 333 332 331 331 331 332 335
196 200 204 206 209 213 217 221 225 231 238 245 250 253 254 257 266 276 281 282 284 285 285 284 283 281 281 280 279 280 282 285 288 291 293 295 295 296 296 296 295 295 295 295 296 298 300 301 302 303 305 306 307 308 310 311 313 314 315 315 316 317 317 318 318 319 321 323 323 324 325 326 326 327 328 329 330 331 331 332 332 332 331 330 330 330 331 334
198 202 207 211 214 218 221 226 230 236 243 248 250 250 253 261 271 279 282 284 285 286 286 285 283 281 281 280 279 280 282 285 288 291 293 294 295 295 296 296 296 296 296 296 297 298 300 301 302 303 305 306 307 308 310 311 312 313 314 316 317 317 318 319 319 320 322 323 323 322 323 324 325 326 327 328 329 329 330 331 331 331 330 329 328 329 331 333
200 203 209 214 218 222 225 229 234 241 248 248 247 251 259 268 275 281 284 285 286 287 286 284 283 281 280 279 279 280 282 284 287 290 293 294 295 295 296 296 296 297 298 298 299 300 301 302 303 304 305 306 307 308 310 311 313 314 315 316 317 317 318 318 319 320 321 322 322 321 322 323 324 324 325 326 328 329 330 330 330 330 329 328 328 328 330 333
203 206 211 215 219 225 229 233 238 244 246 245 247 256 266 271 276 281 284 286 287 287 286 284 282 280 279 278 279 280 281 284 287 289 292 294 295 295 296 297 297 298 299 300 301 302 302 303 304 305 306 306 308 309 311 312 314 315 316 316 317 317 318 318 319 319 319 320 321 321 321 321 323 323 324 326 327 329 330 330 330 329 328 327 327 328 331 333
207 209 213 216 221 227 231 235 240 243 243 243 249 258 265 271 277 282 285 287 288 287 286 284 282 280 279 278 279 280 282 284 287 289 292 294 295 296 297 297 298 298 299 300 302 303 304 304 305 306 307 308 309 311 312 313 314 315 316 316 317 318 319 319 319 319 319 319 320 321 321 321 323 324 325 326 328 329 330 330 329 328 327 327 327 329 332 333
212 213 215 218 224 230 234 238 240 240 242 246 252 261 268 275 280 284 286 287 288 288 286 284 282 281 279 279 280 282 284 286 288 290 292 294 296 297 297 297 297 298 299 300 302 303 304 305 306 307 308 309 311 312 312 313 314 315 316 316 317 318 319 319 319 319 319 319 320 321 321 320 322 324 325 327 328 330 330 330 328 327 327 327 328 330 332 333
218 218 219 223 228 233 236 236 237 240 243 248 257 266 274 279 282 284 287 288 289 287 285 284 282 281 280 280 281 283 285 287 289 291 293 295 296 297 298 298 299 299 300 301 303 304 305 306 308 308 309 311 311 312 313 313 314 315 316 317 317 318 318 319 319 319 319 319 320 321 322 321 322 325 326 328 329 329 329 329 328 327 327 328 329 331 332 333
221 221 222 226 230 231 231 231 235 240 245 253 263 272 277 281 283 285 287 289 289 287 285 284 282 281 281 281 282 284 286 288 289 291 293 295 297 298 299 299 300 301 302 303 304 305 306 308 309 309 310 311 312 312 313 314 314 315 317 318 318 318 318 318 319 319 319 320 320 321 323 322 322 324 326 327 328 327 327 327 327 328 328 329 330 331 332 333
220 218 220 224 226 227 228 231 237 245 253 260 267 273 277 281 283 286 288 289 288 286 285 283 282 282 281 282 283 285 286 288 290 291 293 295 297 298 299 300 300 301 302 303 304 305 307 308 309 310 311 311 312 313 314 315 316 316 317 318 318 318 318 319 319 319 319 320 320 321 323 321 321 323 325 325 326 326 326 327 328 329 329 330 331 332 332 333
215 215 219 223 225 226 230 236 245 255 261 263 267 273 278 281 284 287 289 288 287 286 285 283 283 282 282 282 283 285 286 288 290 292 294 295 297 298 299 300 301 302 303 304 305 305 307 308 309 310 311 312 313 314 315 316 316 316 316 317 318 318 319 319 319 319 321 322 321 322 324 323 321 323 324 324 325 325 325 328 331 331 331 331 332 332 333 334
209 213 220 224 226 230 237 247 255 259 261 263 269 275 278 282 286 288 289 288 287 286 285 284 284 283 283 283 284 285 287 288 290 292 294 295 297 298 299 300 301 302 303 304 305 306 307 308 309 310 311 311 312 313 314 314 314 314 315 316 318 318 319 319 320 321 323 325 324 323 326 326 324 325 325 325 325 326 327 330 333 333 332 333 333 333 334 334
210 216 223 226 231 239 249 254 257 258 260 265 272 276 279 283 286 288 288 287 287 286 286 286 285 285 284 285 285 287 288 289 291 292 294 296 297 298 299 300 301 302 303 304 306 307 309 310 310 312 312 312 312 312 313 314 314 314 315 317 319 320 320 320 321 323 326 328 327 325 327 329 327 327 327 326 327 328 329 333 335 334 334 334 333 334 334 335
218 224 228 233 240 249 254 256 257 258 262 269 274 277 280 283 286 287 287 287 287 288 288 287 287 287 287 287 287 288 289 291 292 293 294 296 297 298 299 300 302 303 304 306 307 308 310 311 312 314 315 314 314 315 316 316 316 316 316 319 321 322 322 322 324 326 327 330 331 329 328 329 329 328 328 327 328 330 332 335 336 335 334 334 334 334 335 336
225 231 236 243 249 253 255 257 258 260 265 272 276 278 281 284 286 287 287 288 289 290 290 290 290 290 289 289 290 291 291 292 293 294 295 297 298 299 301 302 303 304 305 307 308 309 311 312 313 314 315 315 314 316 317 317 317 316 317 321 323 323 323 324 325 327 327 330 332 331 330 329 329 330 331 331 332 334 334 335 336 335 334 334 334 335 336 336
230 237 242 247 251 253 256 259 260 263 269 274 277 279 283 285 286 287 288 289 290 291 291 291 292 292 292 292 292 293 294 294 295 296 298 299 300 301 302 304 305 306 307 308 309 310 311 312 313 314 315 314 314 316 317 317 317 316 318 322 324 324 324 325 326 327 328 330 331 331 331 330 331 335 337 335 336 335 334 335 336 335 334 335 336 336 336 335
236 242 246 248 251 254 257 260 263 267 272 275 278 281 283 285 286 287 288 290 291 292 293 293 293 293 294 294 295 295 296 297 297 299 300 301 302 303 304 305 306 307 308 308 309 310 311 312 312 313 315 314 314 316 317 318 317 317 319 323 325 324 324 326 327 326 327 329 330 331 334 334 335 339 340 338 336 335 334 335 336 336 336 336 336 335 335 335
239 245 248 251 253 256 259 262 265 269 274 277 280 282 284 286 287 288 290 292 293 294 295 295 295 295 296 296 297 298 298 299 300 301 302 303 304 304 305 306 307 308 308 309 309 309 310 311 312 314 316 315 314 317 319 318 317 317 319 323 324 324 324 325 326 325 325 329 332 334 338 339 339 340 339 337 336 335 334 335 337 337 337 336 335 335 335 335
243 246 250 252 255 258 261 265 269 272 276 279 281 283 285 287 288 290 292 294 295 295 297 297 298 298 299 299 300 300 301 302 302 303 303 304 305 305 306 307 307 307 307 308 308 309 310 312 313 315 318 317 316 318 319 317 316 317 320 324 324 323 323 325 326 324 326 333 338 340 340 341 340 339 338 337 337 335 334 335 337 338 336 334 334 334 335 335
246 249 251 254 257 262 265 268 272 276 278 281 283 285 287 289 291 292 294 295 296 297 298 299 299 300 300 300 301 301 302 303 303 304 304 305 305 306 306 306 306 307 307 307 308 309 311 313 314 316 319 318 317 318 318 317 316 317 322 326 324 321 324 328 326 325 331 339 342 341 340 339 339 338 338 338 338 336 334 333 335 336 334 334 334 334 335 335
Height
10723 10725 10727 10730 10733 10737 10741 10745 10749 10751 10754 10756 10756 10756 10758 10762 10765 10766 10767 10769 10771 10772 10774 10776 10777 10778 10778 10779 10779 10780 10780 10781 10780 10780 10780 10779 10778 10778 10777 10776 10775 10773 10772 10770 10768 10767 10765 10763 10761 10760 10757 10755 10752 10749 10745 10742 10740 10737 10734 10731 10728 10725 10722 10719 10717 10714 10711 10708 10705 10701 10699 10695 10690 10686 10681 10676 10672 10667 10662 10657 10652 10647 10643 10638 10633 10628 10622 10616
10724 10726 10728 10731 10734 10737 10741 10744 10746 10749 10751 10753 10753 10754 10757 10760 10762 10764 10767 10768 10770 10771 10773 10774 10775 10776 10776 10776 10777 10778 10778 10778 10778 10778 10777 10776 10776 10775 10774 10773 10772 10771 10769 10767 10765 10763 10762 10759 10757 10756 10754 10751 10748 10744 10740 10737 10734 10733 10730 10727 10724 10720 10717 10714 10712 10710 10707 10704 10700 10697 10695 10692 10687 10683 10678 10673 10668 10662 10657 10652 10648 10643 10638 10632 10626 10620 10614 10607
10725 10727 10729 10731 10734 10737 10739 10742 10744 10747 10749 10750 10752 10754 10756 10758 10761 10764 10766 10767 10768 10770 10771 10772 10773 10773 10773 10774 10775 10776 10776 10776 10776 10775 10774 10774 10773 10773 10772 10771 10769 10768 10766 10764 10762 10760 10758 10756 10753 10751 10749 10746 10743 10740 10736 10732 10729 10728 10726 10723 10720 10717 10714 10710 10708 10706 10704 10701 10696 10692 10689 10686 10683 10678 10674 10668 10663 10658 10653 10648 10643 10637 10631 10625 10619 10612 10606 10599
10726 10728 10730 10732 10734 10736 10738 10739 10743 10746 10747 10748 10750 10752 10754 10757 10760 10763 10764 10765 10767 10768 10769 10770 10771 10771 10771 10772 10773 10773 10774 10773 10773 10772 10772 10771 10771 10770 10769 10768 10766 10764 10762 10761 10759 10757 10755 10752 10749 10747 10744 10742 10739 10736 10733 10729 10725 10723 10722 10720 10717 10714 10711 10707 10704 10703 10701 10698 10693 10687 10682 10679 10676 10672 10668 10663 10658 10654 10648 10642 10636 10630 10624 10617 10611 10605 10599 10592
10727 10729 10731 10733 10735 10736 10736 10738 10742 10744 10744 10746 10749 10750 10753 10756 10759 10761 10763 10764 10765 10766 10767 10768 10769 10769 10769 10770 10771 10771 10771 10771 10770 10769 10769 10769 10769 10768 10766 10764 10762 10761 10759 10758 10756 10754 10751 10748 10745 10743 10740 10738 10735 10733 10730 10726 10723 10720 10718 10717 10714 10711 10709 10705 10700 10698 10697 10694 10689 10683 10677 10673 10670 10665 10662 10657 10653 10647 10641 10635 10629 10623 10617 10611 10605 10599 10592 10584
10728 10730 10731 10733 10735 10736 10736 10738 10742 10743 10744 10746 10748 10749 10752 10756 10758 10760 10761 10762 10763 10764 10765 10766 10767 10767 10767 10768 10769 10769 10768 10768 10767 10767 10767 10766 10766 10765 10763 10761 10759 10757 10756 10754 10753 10751 10748 10745 10742 10739 10736 10734 10731 10729 10727 10724 10720 10717 10715 10714 10712 10709 10706 10702 10697 10694 10692 10688 10684 10678 10672 10668 10663 10659 10656 10651 10646 10640 10635 10629 10624 10618 10612 10605 10599 10593 10586 10578
10729 10731 10732 10734 10735 10736 10737 10740 10742 10743 10745 10746 10747 10749 10752 10756 10757 10758 10759 10760 10762 10763 10764 10765 10765 10765 10765 10766 10766 10766 10766 10765 10765 10764 10764 10763 10763 10762 10760 10758 10756 10754 10752 10751 10749 10747 10744 10741 10738 10736 10733 10731 10728 10726 10723 10721 10718 10715 10712 10710 10708 10705 10702 10699 10693 10689 10686 10683 10679 10674 10668 10663 10658 10654 10649 10644 10639 10634 10629 10624 10619 10613 10607 10600 10594 10587 10580 10572
10729 10731 10733 10734 10736 10737 10737 10739 10741 10743 10745 10746 10747 10750 10752 10755 10755 10756 10757 10758 10760 10761 10762 10763 10763 10763 10764 10764 10764 10764 10763 10763 10762 10761 10761 10761 10760 10759 10757 10755 10753 10751 10749 10747 10745 10743 10740 10737 10735 10733 10730 10728 10725 10723 10721 10718 10716 10712 10709 10706 10704 10701 10698 10695 10690 10685 10681 10678 10674 10669 10664 10659 10653 10648 10643 10638 10634 10629 10625 10620 10614 10608 10602 10595 10588 10582 10574 10566
10730 10731 10733 10734 10736 10737 10737 10738 10740 10742 10744 10745 10747 10749 10751 10753 10753 10754 10755 10757 10758 10760 10761 10761 10761 10762 10762 10762 10762 10762 10761 10760 10759 10759 10759 10758 10757 10756 10754 10752 10750 10748 10746 10744 10742 10740 10737 10735 10732 10730 10727 10725 10723 10721 10718 10716 10713 10709 10706 10702 10700 10697 10694 10692 10688 10682 10678 10674 10670 10665 10659 10654 10649 10644 10639 10634 10629 10625 10620 10615 10609 10602 10596 10589 10583 10577 10570 10561
10729 10731 10732 10734 10735 10736 10736 10737 10739 10741 10743 10744 10746 10748 10749 10751 10751 10752 10754 10755 10757 10758 10759 10759 10759 10760 10761 10760 10760 10760 10759 10758 10757 10756 10756 10755 10754 10753 10751 10749 10746 10744 10742 10740 10738 10736 10734 10732 10729 10727 10724 10722 10720 10718 10716 10714 10711 10707 10703 10699 10696 10694 10691 10688 10684 10680 10675 10670 10666 10661 10655 10650 10645 10640 10635 10630 10625 10620 10615 10609 10602 10595 10589 10583 10577 10571 10564 10556
10728 10730 10731 10732 10734 10736 10736 10736 10737 10740 10742 10743 10745 10747 10748 10749 10749 10751 10752 10754 10755 10756 10757 10757 10758 10758 10759 10758 10758 10757 10756 10755 10755 10754 10754 10753 10752 10750 10748 10745 10743 10740 10739 10737 10735 10733 10731 10729 10727 10724 10722 10720 10718 10716 10713 10711 10708 10704 10700 10696 10693 10689 10686 10683 10680 10676 10671 10666 10662 10657 10652 10647 10641 10636 10631 10626 10621 10615 10609 10602 10595 10589 10583 10577 10572 10565 10559 10551
10727 10729 10730 10732 10733 10735 10735 10735 10736 10738 10740 10742 10744 10745 10746 10747 10748 10749 10751 10752 10754 10754 10755 10755 10756 10757 10757 10756 10755 10755 10754 10753 10753 10752 10752 10750 10749 10747 10745 10742 10739 10737 10736 10734 10732 10730 10728 10726 10724 10721 10719 10717 10715 10713 10710 10708 10705 10702 10698 10694 10690 10685 10682 10679 10676 10672 10667 10663 10659 10654 10648 10643 10638 10633 10628 10622 10616 10610 10603 10596 10589 10583 10578 10572 10566 10560 10553 10546
10726 10727 10729 10731 10732 10733 10734 10735 10736 10737 10739 10741 10742 10744 10744 10745 10746 10748 10749 10751 10752 10752 10753 10754 10754 10754 10754 10754 10753 10752 10752 10751 10751 10750 10749 10748 10746 10744 10741 10739 10736 10734 10732 10731 10729 10727 10725 10723 10721 10718 10716 10714 10712 10710 10707 10704 10702 10699 10696 10692 10688 10684 10679 10675 10672 10667 10663 10659 10656 10651 10645 10640 10635 10629 10624 10618 10611 10605 10598 10591 10585 10579 10573 10568 10562 10554 10547 10540
10724 10725 10727 10728 10730 10732 10733 10734 10736 10736 10738 10740 10741 10742 10743 10744 10745 10747 10748 10749 10750 10751 10751 10752 10752 10752 10752 10752 10751 10750 10750 10749 10748 10747 10746 10745 10743 10741 10738 10736 10733 10731 10730 10728 10726 10724 10722 10720 10718 10715 10713 10711 10709 10707 10704 10702 10699 10696 10693 10689 10685 10681 10675 10670 10666 10663 10659 10655 10652 10647 10641 10636 10631 10624 10618 10612 10606 10599 10592 10586 10580 10575 10569 10563 10557 10549 10542 10535
10722 10723 10724 10726 10728 10730 10731 10732 10734 10736 10737 10738 10739 10741 10741 10743 10744 10746 10747 10748 10748 10749 10749 10750 10750 10750 10750 10750 10749 10748 10747 10747 10746 10745 10744 10742 10740 10738 10735 10733 10731 10729 10727 10725 10723 10721 10719 10717 10715 10713 10710 10708 10706 10704 10701 10699 10696 10693 10690 10685 10680 10676 10671 10666 10661 10658 10654 10650 10647 10643 10637 10631 10626 10619 10613 10607 10601 10594 10588 10582 10577 10571 10565 10559 10552 10544 10536 10529
10720 10722 10723 10724 10726 10727 10728 10730 10733 10734 10736 10738 10738 10739 10740 10742 10743 10744 10745 10746 10747 10747 10747 10748 10748 10748 10748 10747 10746 10746 10745 10744 10743 10742 10741 10739 10737 10734 10732 10730 10728 10726 10725 10723 10721 10719 10717 10715 10713 10711 10708 10705 10703 10700 10698 10696 10693 10690 10686 10682 10677 10672 10667 10663 10657 10653 10649 10644 10640 10638 10633 10626 10621 10615 10609 10603 10596 10590 10584 10578 10572 10566 10560 10553 10546 10538 10531 10524
10718 10720 10721 10722 10723 10724 10726 10729 10731 10733 10735 10736 10737 10737 10739 10741 10742 10743 10744 10744 10745 10745 10745 10746 10746 10746 10745 10745 10744 10743 10743 10742 10741 10740 10739 10737 10734 10732 10729 10727 10725 10724 10722 10720 10719 10717 10715 10713 10711 10708 10706 10703 10701 10698 10696 10693 10689 10685 10681 10678 10674 10670 10665 10660 10654 10648 10645 10639 10634 10632 10628 10621 10616 10611 10604 10598 10591 10585 10580 10574 10568 10561 10555 10548 10540 10533 10525 10518
10716 10717 10718 10719 10721 10722 10725 10728 10729 10731 10733 10734 10735 10736 10738 10740 10740 10742 10742 10742 10743 10743 10744 10744 10744 10743 10743 10742 10741 10741 10740 10740 10739 10738 10736 10734 10731 10729 10726 10725 10723 10721 10719 10717 10716 10714 10712 10710 10708 10705 10703 10701 10699 10696 10693 10689 10685 10681 10678 10674 10671 10668 10663 10659 10652 10645 10640 10636 10630 10627 10624 10617 10611 10607 10600 10594 10587 10581 10575 10570 10564 10557 10549 10542 10535 10527 10520 10512
10713 10714 10716 10717 10719 10722 10725 10726 10728 10729 10731 10732 10734 10736 10738 10739 10739 10740 10740 10741 10741 10741 10742 10742 10741 10741 10740 10739 10739 10739 10738 10738 10737 10735 10733 10731 10728 10726 10724 10722 10720 10718 10716 10715 10713 10711 10709 10707 10705 10703 10700 10698 10695 10692 10689 10686 10682 10679 10675 10672 10668 10664 10661 10657 10652 10645 10638 10633 10626 10621 10620 10614 10607 10602 10596 10589 10583 10577 10571 10565 10559 10552 10544 10536 10529 10521 10514 10506
10711 10712 10714 10715 10717 10720 10723 10726 10727 10728 10729 10731 10733 10735 10737 10737 10738 10738 10738 10739 10739 10739 10740 10739 10739 10738 10738 10737 10737 10737 10736 10735 10734 10732 10730 10728 10726 10724 10722 10720 10718 10716 10714 10712 10710 10709 10707 10704 10702 10700 10697 10695 10692 10689 10686 10683 10680 10677 10673 10669 10665 10661 10657 10654 10650 10645 10637 10630 10624 10617 10615 10611 10603 10597 10591 10585 10579 10572 10567 10561 10554 10547 10539 10531 10523 10515 10508 10500
10708 10710 10712 10713 10716 10719 10721 10724 10726 10727 10729 10731 10733 10734 10735 10736 10736 10736 10737 10737 10737 10738 10738 10737 10737 10736 10736 10735 10735 10734 10733 10732 10731 10729 10727 10725 10723 10721 10719 10717 10715 10713 10712 10710 10708 10706 10704 10702 10700 10697 10695 10692 10690 10687 10684 10681 10677 10674 10670 10667 10662 10657 10653 10649 10646 10642 10635 10627 10620 10612 10609 10607 10599 10592 10587 10580 10574 10568 10562 10555 10549 10541 10533 10525 10518 10510 10502 10494
10706 10708 10710 10712 10715 10718 10720 10722 10725 10727 10729 10731 10732 10733 10734 10734 10734 10735 10735 10735 10735 10735 10736 10735 10735 10734 10733 10733 10732 10732 10730 10729 10727 10725 10724 10722 10720 10719 10717 10714 10713 10711 10709 10707 10706 10704 10702 10699 10697 10695 10692 10690 10688 10685 10682 10678 10675 10671 10668 10664 10660 10654 10648 10643 10640 10638 10634 10627 10618 10608 10601 10601 10595 10587 10582 10576 10570 10564 10557 10550 10543 10535 10528 10520 10512 10505 10497 10488
10704 10706 10709 10711 10714 10717 10719 10721 10724 10726 10728 10730 10730 10731 10731 10732 10732 10733 10733 10733 10734 10733 10733 10733 10732 10732 10731 10730 10730 10729 10727 10726 10724 10722 10721 10719 10718 10716 10714 10712 10710 10709 10707 10705 10703 10701 10699 10697 10695 10692 10690 10687 10684 10682 10679 10676 10672 10668 10664 10659 10655 10651 10646 10640 10633 10631 10629 10624 10618 10608 10595 10591 10590 10582 10576 10572 10566 10559 10552 10545 10538 10530 10522 10515 10507 10499 10492 10483
10702 10705 10708 10710 10714 10717 10719 10720 10722 10724 10726 10727 10728 10729 10729 10730 10731 10731 10731 10732 10732 10732 10731 10731 10730 10729 10729 10728 10727 10726 10724 10723 10721 10720 10718 10717 10715 10713 10712 10710 10708 10707 10705 10703 10701 10699 10697 10694 10692 10689 10687 10684 10681 10678 10675 10672 10668 10663 10659 10655 10650 10645 10642 10637 10631 10625 10622 10618 10614 10608 10594 10584 10583 10579 10572 10567 10561 10554 10547 10540 10533 10525 10517 10510 10502 10494 10486 10477
10701 10704 10707 10710 10714 10717 10719 10720 10721 10722 10724 10726 10727 10728 10729 10729 10730 10730 10730 10730 10730 10730 10729 10729 10728 10727 10726 10725 10724 10723 10721 10720 10718 10717 10715 10714 10713 10711 10710 10708 10707 10705 10703 10701 10699 10696 10694 10691 10689 10687 10684 10681 10677 10674 10670 10666 10663 10659 10655 10650 10646 10641 10636 10632 10628 10622 10617 10613 10608 10605 10596 10584 10579 10574 10568 10562 10555 10549 10542 10535 10528 10521 10513 10505 10497 10489 10480 10471
10700 10703 10706 10710 10713 10715 10717 10719 10720 10722 10723 10725 10726 10727 10728 10729 10729 10729 10729 10728 10728 10728 10727 10726 10726 10724 10723 10722 10721 10720 10718 10717 10715 10714 10713 10712 10710 10709 10707 10706 10704 10703 10701 10699 10697 10694 10692 10689 10686 10684 10681 10678 10674 10670 10666 10662 10658 10655 10651 10646 10641 10637 10632 10626 10623 10618 10613 10608 10603 10599 10593 10582 10576 10570 10563 10557 10551 10543 10537 10530 10522 10515 10507 10499 10491 10483 10474 10465
10699 10702 10705 10709 10712 10714 10715 10717 10719 10721 10723 10724 10725 10726 10727 10727 10727 10727 10727 10726 10726 10725 10725 10724 10723 10722 10721 10720 10718 10717 10716 10714 10713 10712 10711 10709 10708 10706 10705 10703 10702 10700 10698 10696 10694 10692 10689 10687 10684 10681 10678 10674 10670 10666 10662 10658 10653 10649 10645 10641 10635 10630 10626 10621 10616 10612 10607 10602 10596 10592 10587 10579 10572 10568 10561 10553 10545 10538 10531 10524 10516 10508 10501 10493 10485 10477 10468 10460
10699 10702 10704 10707 10710 10712 10714 10716 10719 10721 10722 10723 10724 10725 10726 10726 10726 10725 10725 10724 10723 10723 10723 10722 10721 10720 10719 10717 10716 10715 10713 10712 10711 10710 10708 10707 10705 10704 10702 10701 10699 10697 10695 10693 10691 10689 10686 10684 10681 10678 10675 10671 10667 10663 10659 10654 10650 10645 10640 10637 10632 10626 10621 10615 10610 10605 10601 10596 10590 10586 10583 10575 10568 10562 10556 10549 10541 10534 10527 10519 10511 10503 10495 10487 10478 10471 10464 10456
10700 10702 10704 10707 10709 10711 10713 10716 10718 10720 10721 10722 10723 10724 10724 10724 10724 10724 10723 10723 10722 10721 10721 10719 10718 10717 10716 10715 10714 10712 10711 10710 10709 10707 10706 10705 10703 10702 10700 10698 10696 10694 10692 10690 10688 10686 10684 10681 10678 10675 10672 10668 10664 10660 10656 10651 10647 10642 10636 10632 10628 10623 10617 10611 10604 10599 10595 10591 10585 10580 10576 10571 10565 10558 10551 10545 10538 10530 10522 10514 10506 10497 10489 10481 10473 10466 10459 10451
10700 10702 10704 10706 10708 10711 10713 10716 10718 10719 10720 10721 10722 10722 10722 10722 10722 10722 10722 10721 10720 10719 10719 10717 10716 10715 10714 10713 10711 10710 10709 10708 10706 10705 10704 10702 10700 10699 10697 10695 10693 10691 10689 10687 10685 10682 10680 10677 10674 10670 10667 10664 10661 10657 10653 10648 10644 10639 10634 10629 10624 10619 10614 10607 10600 10593 10590 10587 10582 10576 10569 10563 10559 10554 10546 10539 10532 10524 10516 10509 10501 10493 10484 10476 10468 10460 10453 10446
10700 10702 10705 10707 10709 10711 10713 10715 10717 10718 10719 10720 10720 10720 10721 10721 10721 10721 10720 10720 10719 10717 10716 10715 10714 10713 10711 10710 10709 10708 10706 10705 10704 10703 10701 10700 10698 10696 10694 10692 10690 10688 10685 10683 10681 10679 10676 10673 10670 10666 10663 10659 10656 10653 10649 10645 10641 10636 10631 10627 10622 10616 10611 10606 10598 10590 10584 10581 10577 10572 10564 10555 10550 10546 10540 10533 10525 10517 10510 10503 10496 10488 10480 10471 10463 10455 10448 10441
10700 10703 10705 10708 10710 10711 10713 10715 10716 10717 10718 10718 10719 10719 10719 10719 10719 10719 10718 10718 10717 10715 10714 10713 10712 10710 10709 10708 10706 10705 10704 10703 10701 10700 10698 10697 10695 10693 10691 10689 10687 10685 10683 10680 10677 10675 10672 10669 10666 10662 10658 10654 10651 10647 10644 10640 10636 10632 10627 10622 10618 10614 10609 10604 10599 10591 10580 10573 10569 10566 10560 10551 10543 10537 10532 10525 10518 10511 10504 10498 10491 10483 10475 10466 10458 10450 10444 10437
10701 10703 10705 10708 10709 10711 10712 10713 10714 10716 10716 10717 10718 10718 10717 10718 10718 10717 10716 10716 10715 10713 10712 10711 10710 10708 10707 10705 10704 10702 10701 10700 10699 10697 10696 10694 10692 10690 10688 10686 10684 10682 10680 10677 10674 10671 10668 10664 10661 10658 10653 10649 10646 10642 10639 10635 10631 10627 10622 10618 10613 10609 10606 10601 10596 10591 10581 10570 10562 10557 10553 10547 10539 10532 10525 10518 10512 10505 10499 10493 10486 10478 10470 10462 10454 10446 10439 10432
10700 10703 10705 10706 10708 10710 10711 10712 10713 10714 10715 10715 10716 10716 10716 10716 10716 10715 10714 10714 10713 10711 10710 10709 10707 10706 10704 10703 10701 10700 10699 10698 10696 10695 10693 10691 10689 10687 10685 10683 10681 10679 10676 10674 10671 10667 10664 10661 10657 10654 10650 10645 10641 10637 10634 10631 10626 10622 10617 10613 10607 10601 10597 10592 10587 10584 10578 10568 10558 10551 10546 10540 10534 10527 10521 10514 10508 10501 10494 10488 10481 10474 10465 10457 10450 10442 10435 10428
10699 10701 10703 10705 10707 10708 10709 10710 10711 10712 10713 10714 10714 10714 10714 10714 10714 10713 10712 10711 10711 10709 10708 10706 10705 10703 10702 10700 10699 10698 10696 10695 10693 10692 10690 10688 10687 10685 10683 10680 10678 10676 10673 10670 10667 10664 10660 10657 10653 10650 10646 10641 10637 10632 10628 10625 10621 10616 10612 10607 10602 10595 10590 10585 10578 10573 10570 10563 10554 10548 10544 10536 10528 10522 10516 10509 10504 10497 10490 10483 10476 10468 10460 10452 10444 10437 10430 10423
10697 10699 10701 10703 10705 10706 10707 10708 10710 10711 10712 10712 10712 10712 10713 10712 10712 10711 10710 10709 10708 10707 10705 10704 10702 10701 10699 10698 10696 10695 10694 10692 10691 10689 10687 10685 10683 10681 10679 10677 10674 10672 10669 10667 10664 10660 10656 10652 10649 10645 10641 10636 10632 10627 10622 10618 10614 10610 10605 10601 10596 10590 10584 10579 10573 10567 10563 10558 10548 10540 10538 10536 10527 10519 10513 10506 10500 10493 10485 10478 10470 10462 10454 10446 10438 10431 10424 10418
10696 10698 10699 10701 10703 10705 10706 10707 10709 10710 10710 10710 10711 10711 10711 10710 10710 10709 10708 10707 10706 10704 10703 10701 10699 10698 10697 10695 10694 10692 10691 10689 10688 10686 10684 10682 10680 10678 10676 10674 10671 10668 10666 10663 10660 10656 10652 10648 10644 10641 10637 10631 10627 10622 10616 10611 10608 10603 10598 10594 10589 10585 10578 10572 10567 10562 10557 10554 10546 10532 10525 10527 10525 10516 10509 10502 10495 10488 10480 10471 10464 10455 10447 10439 10431 10425 10419 10412
10695 10696 10698 10700 10702 10703 10705 10706 10708 10708 10708 10708 10709 10709 10709 10708 10708 10707 10706 10705 10703 10702 10700 10699 10697 10695 10694 10692 10691 10689 10688 10686 10685 10683 10681 10679 10676 10674 10672 10670 10667 10664 10661 10658 10655 10652 10648 10644 10639 10636 10633 10627 10622 10617 10611 10605 10601 10596 10591 10585 10580 10577 10571 10563 10557 10553 10549 10546 10544 10533 10517 10512 10514 10508 10501 10495 10488 10482 10474 10464 10455 10447 10439 10432 10426 10419 10413 10406
10694 10696 10698 10699 10701 10702 10704 10705 10706 10706 10706 10707 10707 10707 10707 10706 10706 10705 10704 10702 10701 10699 10697 10696 10694 10693 10691 10689 10688 10686 10685 10683 10681 10679 10678 10675 10673 10670 10668 10666 10663 10660 10657 10654 10651 10647 10644 10640 10635 10631 10628 10624 10618 10612 10606 10600 10595 10590 10584 10578 10572 10568 10564 10557 10549 10543 10539 10534 10533 10531 10517 10505 10503 10500 10493 10487 10480 10473 10468 10458 10448 10439 10432 10425 10419 10413 10407 10400
10694 10696 10697 10698 10700 10701 10702 10704 10704 10704 10705 10705 10705 10705 10705 10704 10703 10702 10701 10700 10698 10696 10695 10693 10691 10690 10688 10686 10685 10683 10681 10679 10678 10676 10674 10672 10669 10667 10664 10661 10658 10656 10653 10650 10647 10643 10639 10636 10631 10625 10622 10619 10614 10607 10601 10594 10588 10584 10578 10571 10565 10560 10556 10552 10544 10535 10530 10524 10520 10520 10513 10499 10494 10491 10484 10478 10472 10464 10459 10452 10442 10433 10426 10419 10414 10408 10402 10395
10694 10695 10696 10697 10699 10700 10701 10702 10702 10703 10703 10703 10703 10703 10702 10702 10701 10700 10698 10697 10695 10693 10692 10690 10688 10687 10685 10683 10682 10680 10678 10676 10674 10672 10670 10668 10665 10663 10660 10657 10654 10651 10648 10645 10642 10639 10635 10632 10627 10621 10616 10613 10609 10602 10596 10588 10581 10576 10572 10565 10558 10552 10547 10544 10539 10531 10524 10517 10511 10510 10505 10491 10483 10483 10477 10470 10465 10456 10450 10445 10436 10428 10421 10415 10410 10403 10397 10391
10693 10694 10695 10696 10697 10698 10699 10700 10700 10701 10701 10701 10701 10701 10700 10699 10698 10697 10695 10694 10692 10690 10689 10687 10685 10684 10682 10680 10678 10676 10675 10673 10670 10668 10666 10664 10661 10658 10656 10653 10650 10647 10644 10641 10637 10634 10630 10627 10623 10617 10609 10605 10603 10598 10592 10584 10575 10568 10565 10560 10553 10546 10540 10534 10530 10525 10518 10511 10503 10501 10500 10487 10474 10473 10470 10463 10457 10449 10442 10438 10431 10423 10416 10411 10405 10399 10393 10386
10692 10693 10694 10695 10696 10697 10698 10698 10699 10699 10699 10699 10699 10698 10697 10696 10695 10694 10692 10690 10689 10687 10686 10684 10682 10680 10679 10677 10675 10673 10671 10669 10667 10664 10662 10660 10657 10654 10651 10648 10645 10642 10639 10636 10633 10629 10625 10621 10619 10615 10607 10599 10594 10590 10585 10579 10570 10563 10558 10555 10548 10540 10534 10527 10521 10516 10512 10505 10494 10490 10493 10484 10469 10464 10461 10454 10449 10441 10434 10431 10426 10419 10412 10406 10400 10394 10387 10380
10691 10692 10693 10694 10695 10696 10696 10697 10697 10697 10697 10697 10697 10696 10695 10694 10692 10691 10689 10687 10686 10684 10682 10681 10679 10677 10675 10673 10671 10669 10667 10666 10663 10660 10657 10655 10653 10650 10647 10644 10641 10638 10634 10631 10628 10624 10620 10615 10611 10610 10605 10598 10592 10587 10582 10576 10568 10560 10554 10551 10545 10537 10528 10521 10514 10509 10506 10502 10489 10479 10482 10478 10463 10455 10450 10444 10440 10434 10427 10424 10420 10414 10408 10401 10394 10387 10380 10373
10690 10691 10692 10693 10693 10694 10694 10695 10695 10695 10695 10694 10694 10693 10692 10690 10689 10688 10686 10684 10682 10681 10679 10677 10675 10674 10672 10670 10668 10666 10664 10662 10660 10657 10653 10651 10649 10645 10643 10639 10636 10633 10629 10626 10622 10618 10614 10608 10603 10599 10595 10590 10586 10582 10577 10572 10563 10554 10549 10546 10541 10532 10522 10513 10507 10502 10499 10497 10486 10471 10470 10471 10460 10450 10443 10435 10431 10427 10422 10418 10414 10408 10401 10395 10388 10381 10374 10367
10689 10690 10691 10691 10692 10692 10692 10692 10693 10692 10692 10691 10691 10690 10689 10687 10686 10684 10682 10681 10679 10677 10676 10674 10672 10670 10668 10666 10664 10662 10660 10658 10656 10653 10650 10647 10644 10641 10638 10635 10631 10627 10624 10620 10616 10613 10610 10603 10596 10592 10586 10577 10573 10570 10566 10561 10554 10544 10539 10537 10532 10525 10516 10506 10499 10495 10491 10490 10483 10468 10460 10460 10457 10449 10443 10435 10428 10422 10417 10413 10408 10402 10396 10390 10383 10376 10369 10362
10688 10689 10689 10690 10690 10690 10690 10690 10690 10690 10689 10689 10688 10686 10685 10684 10682 10681 10679 10677 10675 10674 10672 10670 10668 10667 10664 10662 10660 10658 10656 10654 10651 10648 10645 10643 10640 10636 10633 10630 10626 10622 10618 10614 10610 10607 10604 10599 10592 10587 10581 10570 10565 10562 10557 10552 10545 10536 10530 10529 10525 10517 10509 10501 10492 10487 10483 10481 10478 10468 10456 10450 10449 10445 10438 10432 10428 10422 10415 10410 10406 10399 10393 10386 10379 10372 10364 10357
10687 10687 10687 10688 10688 10688 10688 10688 10688 10687 10686 10685 10685 10683 10682 10680 10679 10677 10675 10674 10672 10670 10669 10666 10664 10663 10661 10658 10656 10654 10652 10649 10646 10643 10641 10638 10635 10632 10628 10624 10620 10616 10612 10608 10604 10600 10598 10595 10589 10584 10578 10565 10557 10556 10552 10545 10539 10529 10523 10523 10520 10511 10503 10496 10488 10480 10476 10473 10469 10464 10455 10445 10440 10439 10434 10426 10422 10418 10412 10407 10402 10396 10389 10382 10375 10367 10359 10351
10685 10686 10686 10686 10686 10686 10686 10685 10685 10684 10683 10682 10681 10680 10678 10677 10675 10674 10672 10670 10668 10666 10665 10663 10660 10659 10656 10654 10652 10650 10647 10645 10642 10639 10636 10633 10629 10626 10623 10618 10614 10610 10606 10602 10598 10594 10592 10590 10584 10581 10577 10564 10552 10549 10546 10540 10533 10525 10518 10516 10514 10506 10497 10491 10484 10475 10470 10468 10463 10458 10454 10445 10435 10432 10429 10423 10417 10411 10406 10402 10397 10390 10384 10377 10370 10362 10354 10347
10683 10684 10684 10684 10684 10683 10683 10683 10682 10681 10680 10679 10678 10676 10675 10673 10672 10670 10668 10667 10665 10662 10661 10659 10657 10654 10652 10650 10648 10645 10643 10640 10637 10634 10631 10628 10624 10620 10617 10612 10608 10604 10600 10596 10592 10587 10584 10583 10579 10576 10574 10564 10551 10545 10541 10533 10526 10520 10516 10512 10507 10500 10492 10485 10478 10470 10465 10464 10460 10453 10450 10446 10438 10430 10425 10419 10414 10407 10401 10397 10393 10385 10377 10371 10364 10356 10349 10341
10681 10681 10681 10682 10681 10680 10680 10679 10678 10678 10677 10675 10674 10673 10671 10670 10668 10667 10665 10663 10661 10659 10657 10655 10653 10650 10648 10645 10643 10640 10638 10635 10632 10629 10626 10622 10618 10614 10611 10607 10602 10599 10594 10589 10586 10582 10577 10576 10572 10570 10569 10561 10550 10544 10538 10529 10521 10515 10512 10509 10502 10493 10487 10480 10472 10465 10461 10459 10456 10450 10445 10442 10437 10431 10424 10417 10409 10402 10394 10389 10387 10382 10373 10365 10358 10350 10343 10334
10679 10679 10679 10679 10678 10677 10677 10676 10675 10675 10674 10672 10670 10669 10668 10666 10665 10663 10661 10659 10657 10655 10653 10651 10649 10646 10643 10641 10638 10635 10633 10630 10626 10623 10620 10616 10613 10608 10605 10601 10596 10592 10588 10583 10580 10576 10571 10569 10565 10563 10562 10556 10546 10541 10535 10526 10517 10511 10509 10506 10498 10489 10482 10476 10467 10459 10457 10454 10449 10445 10440 10435 10431 10426 10421 10414 10406 10398 10388 10381 10379 10377 10370 10361 10352 10343 10336 10328